Change the Weather History Date:

Friday, July 5, 2013

  Actual Average Record
Temperature  
Mean Temperature 81 °F 73 °F  
Max Temperature 91 °F 84 °F 98 °F (2010)
Min Temperature 71 °F 62 °F 50 °F (1968)
Degree Days  
Heating Degree Days 0 0  
Month to date heating degree days 0 0  
Since 1 June heating degree days 9 33  
Since 1 July heating degree days 0 0  
Cooling Degree Days 16 8  
Month to date cooling degree days 69 40  
Year to date cooling degree days 332 240  
Since 1 June cooling degree days 260 195  
Growing Degree Days 32 (Base 50)    
Moisture  
Dew Point 71 °F    
Average Humidity 73    
Maximum Humidity 93    
Minimum Humidity 52    
Precipitation  
Precipitation 0.00 in 0.15 in 1.43 in (1984)
Month to date precipitation 1.24 0.76  
Year to date precipitation 21.62 21.89  
Snow  
Snow 0.00 in 0.00 in 0.00 in (2002)
Month to date snowfall 0.0 0.0  
Since 1 June snowfall 0.0 0.0  
Since 1 July snowfall 0.0 0.0  
Snow Depth 0.00 in    
Sea Level Pressure  
Sea Level Pressure 30.17 in    
Wind  
Wind Speed 8 mph (SW)    
Max Wind Speed 16 mph    
Max Gust Speed 23 mph    
Visibility 10 miles    
Events      
T = Trace of Precipitation, MM = Missing Value Source: NWS Daily Summary

Daily Weather History Graph

Daily Weather History Graph

Search for Another Location

Airport or City:

Trip Planner

Search our weather history database for the weather conditions in past years. The results will help you decide how hot, cold, wet, or windy it might be!

Date:

Astronomy

Jul. 05, 2013 Rise Set
Actual Time 5:36 AM EDT 8:35 PM EDT
Civil Twilight 5:03 AM EDT 9:08 PM EDT
Nautical Twilight 4:22 AM EDT 9:50 PM EDT
Astronomical Twilight 3:33 AM EDT 10:39 PM EDT
Moon 3:34 AM EDT (7/5) 6:28 PM EDT (7/5)
Length of Visible Light 16h 04m
Length of Day
14h 58m
Waning Crescent, 6% of the Moon is Illuminated
Jul 5
Waning Crescent
Jul 8
New
Jul 15
First Quarter
Jul 22
Full
Jul 29
Last Quarter

Hourly Weather History & Observations

Time (EDT) Temp. Heat Index Dew Point Humidity Pressure Visibility Wind Dir Wind Speed Gust Speed Precip Events Conditions
12:51 AM 75.0 °F - 70.0 °F 84% 30.21 in 10.0 mi Calm Calm - N/A   Clear
1:51 AM 75.0 °F - 70.0 °F 84% 30.21 in 10.0 mi Calm Calm - N/A   Clear
2:51 AM 73.0 °F - 70.0 °F 90% 30.21 in 10.0 mi Calm Calm - N/A   Partly Cloudy
3:51 AM 73.9 °F - 71.1 °F 91% 30.20 in 10.0 mi Calm Calm - N/A   Clear
4:51 AM 73.0 °F - 70.0 °F 90% 30.20 in 10.0 mi Calm Calm - N/A   Clear
5:51 AM 72.0 °F - 70.0 °F 93% 30.21 in 10.0 mi South 3.5 mph - N/A   Clear
6:51 AM 75.9 °F - 72.0 °F 87% 30.21 in 10.0 mi SSW 4.6 mph - N/A   Clear
7:51 AM 78.1 °F - 73.0 °F 84% 30.21 in 10.0 mi SW 4.6 mph - N/A   Clear
8:51 AM 81.0 °F 86.2 °F 73.9 °F 79% 30.21 in 10.0 mi SW 8.1 mph - N/A   Scattered Clouds
9:51 AM 82.9 °F 88.8 °F 73.0 °F 72% 30.20 in 10.0 mi WSW 10.4 mph - N/A   Clear
10:51 AM 86.0 °F 93.0 °F 73.0 °F 65% 30.19 in 10.0 mi SSW 8.1 mph - N/A   Partly Cloudy
11:51 AM 86.0 °F 91.5 °F 71.1 °F 61% 30.19 in 10.0 mi SW 9.2 mph - N/A   Partly Cloudy
12:51 PM 88.0 °F 93.8 °F 71.1 °F 57% 30.18 in 10.0 mi SW 8.1 mph - N/A   Scattered Clouds
1:51 PM 90.0 °F 96.4 °F 71.1 °F 54% 30.16 in 10.0 mi SW 10.4 mph 18.4 mph N/A   Partly Cloudy
2:51 PM 89.1 °F 94.1 °F 70.0 °F 53% 30.15 in 10.0 mi SSW 15.0 mph - N/A   Scattered Clouds
3:51 PM 90.0 °F 96.4 °F 71.1 °F 54% 30.14 in 10.0 mi SW 13.8 mph 18.4 mph N/A   Mostly Cloudy
4:51 PM 90.0 °F 96.4 °F 71.1 °F 54% 30.12 in 10.0 mi SW 12.7 mph 19.6 mph N/A   Scattered Clouds
5:51 PM 89.1 °F 95.0 °F 71.1 °F 55% 30.10 in 10.0 mi SW 12.7 mph - N/A   Clear
6:51 PM 87.1 °F 93.6 °F 72.0 °F 61% 30.10 in 10.0 mi SSW 13.8 mph - N/A   Scattered Clouds
7:51 PM 86.0 °F 92.2 °F 72.0 °F 63% 30.10 in 10.0 mi SSW 11.5 mph - N/A   Clear
8:51 PM 82.9 °F 88.8 °F 73.0 °F 72% 30.12 in 10.0 mi SSW 9.2 mph - N/A   Clear
9:51 PM 82.0 °F 87.4 °F 73.0 °F 74% 30.13 in 10.0 mi SW 9.2 mph - N/A   Partly Cloudy
10:51 PM 80.1 °F 83.8 °F 72.0 °F 76% 30.14 in 10.0 mi SSW 8.1 mph - N/A   Clear
11:51 PM 77.0 °F - 72.0 °F 84% 30.14 in 10.0 mi SW 4.6 mph - N/A   Clear